GEFSSGP_con_cape1000_006.txt.gz
Probability
0 0 0 0 0 0 0 0 0 0 0 0 0 0 0 0 0 0 0 0 10 97 100 100 100 100 100 100 100 100 100 100 100 100 100 100 100 100 100 100 100 100 100 100 100 100 100 100 100
0 0 0 0 0 0 0 0 0 0 0 0 0 0 0 13 0 6 6 6 61 97 100 100 100 100 100 100 100 100 100 100 100 100 100 100 100 100 100 100 100 100 100 100 100 100 100 100 100
0 0 0 0 0 0 0 0 0 0 0 0 0 0 0 10 10 6 10 26 61 68 90 100 100 100 100 100 100 100 100 100 100 100 100 100 100 100 100 100 100 100 100 100 100 100 100 100 100
0 0 0 0 0 0 0 0 0 0 0 3 3 3 0 3 39 19 26 55 77 90 100 100 100 100 100 100 100 100 100 100 100 100 100 100 100 100 100 100 100 100 87 100 100 100 100 100 100
0 0 0 0 0 0 0 0 0 0 3 3 3 0 0 39 32 42 42 87 90 100 100 100 100 100 100 100 100 100 100 100 100 100 100 100 100 100 100 100 100 100 97 97 87 87 100 100 100
0 0 0 0 0 0 0 0 3 6 6 10 10 0 0 23 29 55 74 87 94 100 100 100 100 100 100 100 100 100 100 100 100 100 100 100 100 100 94 100 100 97 97 100 100 77 84 97 100
0 0 0 0 0 0 0 0 3 0 0 10 16 0 0 10 52 84 58 68 87 100 100 100 100 100 100 100 100 100 100 100 100 97 94 97 97 94 84 90 90 77 87 90 97 90 81 55 94
0 0 0 0 0 0 0 0 0 0 0 6 32 0 0 13 81 65 61 58 65 87 87 97 100 100 100 100 100 100 97 87 74 77 45 45 65 65 68 87 71 71 90 94 97 94 97 94 90
0 0 0 0 0 0 0 0 0 0 0 0 29 26 0 45 84 32 16 19 23 35 55 87 97 94 97 100 100 100 97 77 52 39 52 26 0 0 3 19 45 90 97 97 97 100 100 100 97
0 0 0 0 0 0 0 0 0 0 0 0 6 0 13 71 61 16 3 0 0 10 26 74 90 90 90 97 90 26 29 6 0 0 0 0 0 0 0 0 84 97 100 90 100 100 100 97 26
0 0 0 0 0 0 0 0 0 0 0 6 19 3 13 58 55 16 10 0 0 23 35 23 39 68 68 58 19 3 0 0 0 0 0 0 0 0 0 0 29 42 45 3 10 45 32 39 0
0 0 0 0 0 0 0 0 0 0 0 3 19 13 0 32 32 29 16 3 13 32 42 29 32 61 71 39 3 3 0 0 0 0 0 0 0 0 0 0 0 0 0 0 0 0 0 0 0
0 0 0 0 0 0 3 19 16 13 3 35 35 19 10 3 6 13 3 10 29 42 65 68 68 81 71 42 6 3 0 0 0 0 0 0 0 0 0 0 0 0 0 0 0 0 0 0 0
0 0 0 0 0 0 6 29 23 6 29 52 32 13 16 6 6 10 13 32 35 55 87 94 97 90 87 45 6 3 3 0 0 0 0 0 0 0 0 0 0 0 0 0 0 0 0 0 0
0 0 0 0 0 0 0 0 32 6 29 55 39 35 52 39 35 26 29 32 48 81 97 100 100 97 87 23 0 0 0 0 0 0 0 0 0 0 0 0 0 0 0 0 0 0 0 0 0
0 0 0 0 0 0 0 0 26 10 39 55 45 39 42 45 68 58 71 68 71 97 94 100 100 100 77 10 0 0 0 0 0 0 0 0 0 0 0 0 0 0 0 0 0 0 0 0 0
0 0 0 0 0 0 0 0 23 26 42 52 42 42 26 35 68 74 100 97 97 97 94 100 100 97 74 10 0 3 3 3 3 0 0 0 6 6 0 0 0 0 0 0 0 0 0 0 0
0 0 0 0 0 0 0 0 32 68 77 61 48 52 45 55 74 94 97 100 94 97 94 97 97 87 74 55 45 52 23 16 19 3 0 3 6 6 0 0 0 0 0 0 0 0 0 0 0
0 0 0 0 0 0 0 0 29 81 84 81 68 58 71 77 90 97 97 94 84 65 74 77 74 55 61 81 87 97 81 58 45 10 6 10 6 16 3 0 0 0 0 0 0 0 0 0 0
0 0 0 0 0 0 0 6 13 61 90 84 71 71 77 90 97 94 100 84 42 39 39 26 35 45 58 81 84 90 87 84 74 55 61 39 19 13 3 0 0 0 0 0 0 0 0 0 0
0 0 0 0 0 0 0 0 3 10 29 87 87 87 90 94 97 94 97 90 35 13 10 6 10 10 23 26 16 52 35 45 61 74 48 29 29 26 19 0 0 0 0 0 0 0 0 0 0
0 0 0 0 0 0 0 0 0 0 3 23 71 87 97 97 100 97 97 90 65 19 0 0 0 3 0 0 0 13 10 16 16 13 13 6 35 52 13 0 0 0 0 0 0 0 0 0 0
0 0 0 0 0 0 0 0 0 0 0 0 10 74 90 87 81 84 87 77 48 3 0 0 0 0 0 0 0 0 0 0 0 0 3 3 0 0 10 0 0 0 0 0 0 0 0 0 0
0 0 0 0 0 0 0 0 0 0 0 0 0 45 71 61 48 32 29 19 6 0 0 0 0 0 0 0 0 0 0 0 0 0 0 0 0 0 0 0 0 0 0 0 0 0 0 0 0
0 0 0 0 0 0 0 0 0 0 0 0 3 10 13 19 10 3 6 0 0 0 0 0 0 0 0 0 0 0 0 0 0 0 0 0 0 0 0 0 0 0 0 0 0 0 0 0 0
0 0 0 0 0 0 0 0 0 0 0 0 0 3 3 3 0 0 0 0 0 0 0 0 0 0 0 0 0 0 0 0 0 0 0 0 0 0 0 0 0 0 0 0 0 0 0 0 0
0 0 0 0 0 0 0 0 0 0 0 0 0 3 0 0 0 0 0 0 0 0 0 0 0 0 0 0 0 0 0 0 0 0 0 0 0 0 0 0 0 0 0 0 0 0 0 0 0
0 0 0 0 0 0 0 0 0 0 0 0 0 0 0 0 0 0 0 0 0 0 0 0 0 0 0 0 0 0 0 0 0 0 0 0 0 0 0 0 0 0 0 0 0 0 0 0 0
0 0 0 0 0 0 0 0 0 0 0 0 0 0 0 0 0 0 0 0 0 0 0 0 0 0 0 0 0 0 0 0 0 0 0 0 0 0 0 0 0 0 0 0 0 0 0 0 0
0 0 0 0 0 0 0 0 0 0 0 0 0 0 0 0 0 0 0 0 0 0 0 0 0 0 0 0 0 0 0 0 0 0 0 0 0 0 0 0 0 0 0 0 0 0 0 0 0

GEFSSGP_con_cape1000_012.txt.gz
Probability
0 0 0 0 0 0 0 0 0 0 0 0 0 0 0 0 0 0 0 0 0 0 29 100 100 100 100 100 100 100 100 100 100 100 100 100 100 100 100 100 100 100 100 97 100 100 100 100 100
0 0 0 0 0 0 0 0 0 0 0 0 0 0 0 0 0 0 0 0 0 3 26 100 100 100 100 100 97 100 100 100 100 100 100 100 100 100 100 100 100 100 100 100 100 100 100 100 100
0 0 0 0 0 0 0 0 0 0 0 0 0 0 0 0 0 0 0 0 0 3 3 100 100 100 100 100 100 100 100 100 100 100 100 100 100 100 100 100 100 100 100 100 100 100 100 100 100
0 0 0 0 0 0 0 0 0 0 3 0 0 0 3 0 0 0 0 6 6 6 13 100 100 100 100 100 100 100 100 100 100 100 100 100 100 100 100 100 100 100 100 100 97 100 100 100 100
0 0 0 0 0 0 0 0 0 3 3 0 0 3 10 32 10 0 0 6 3 3 19 100 100 100 100 100 100 100 100 100 100 100 100 100 100 100 100 100 94 77 77 94 97 97 100 100 100
0 0 0 0 0 0 0 3 3 3 3 0 0 0 19 35 0 0 0 0 0 3 48 90 100 100 100 100 100 100 100 100 100 100 100 100 100 100 100 97 90 81 61 68 71 71 97 100 100
0 0 0 0 0 0 0 0 3 3 6 3 0 3 32 13 0 0 0 0 0 29 29 65 90 100 100 100 100 100 100 100 100 100 100 100 97 94 97 100 87 52 68 87 94 65 68 100 100
0 0 0 0 0 0 0 0 0 0 10 10 10 13 45 29 6 13 6 13 32 42 39 58 61 74 84 94 100 100 100 100 100 97 94 87 45 29 26 74 77 42 45 61 74 90 100 100 100
0 0 0 0 0 0 0 0 0 3 3 16 23 26 52 71 74 45 16 26 48 45 61 42 45 35 23 16 94 100 90 90 77 68 52 45 0 0 0 29 23 3 32 58 87 94 100 100 100
0 0 0 0 0 0 0 0 0 0 0 3 13 32 87 97 84 35 0 0 6 16 45 35 32 42 26 23 26 0 0 0 0 0 0 0 0 0 0 0 13 48 84 90 100 100 100 100 100
0 0 0 0 0 0 0 0 0 0 0 3 19 71 100 97 87 35 3 0 0 0 23 32 39 39 19 3 0 0 0 0 0 0 0 0 0 0 0 0 0 0 16 13 19 42 35 55 65
0 0 0 0 0 0 0 0 0 0 0 0 32 90 100 94 81 35 10 0 0 6 6 10 26 29 6 3 0 0 0 0 0 0 0 0 0 0 0 0 0 0 0 0 0 0 0 0 6
0 0 0 0 0 0 0 0 0 0 0 16 52 90 97 87 65 23 6 0 0 0 0 6 6 13 10 0 0 0 0 0 0 0 0 0 0 0 0 0 0 0 0 0 0 0 0 0 0
0 0 0 0 0 0 0 6 0 0 16 32 52 71 90 87 58 19 0 0 0 0 0 3 0 0 3 0 0 0 0 0 0 0 0 0 0 0 0 0 0 0 0 0 0 0 0 0 0
0 0 0 0 0 0 3 3 6 10 26 35 29 58 77 74 52 19 0 0 0 0 0 0 0 0 3 0 3 3 0 0 0 0 0 0 0 0 0 0 0 0 0 0 0 0 0 0 0
0 0 0 0 0 0 0 0 0 3 29 26 23 35 58 61 42 19 3 0 0 0 3 3 13 6 6 16 3 3 0 0 0 0 0 0 0 0 0 0 0 0 0 0 0 0 0 0 0
0 0 0 0 0 0 0 0 0 3 32 32 26 19 32 16 13 16 10 0 3 6 13 19 39 39 29 10 3 0 0 0 0 0 0 0 0 0 0 0 0 0 0 0 0 0 0 0 0
0 0 0 0 0 0 0 0 0 6 39 39 32 23 26 13 13 6 19 16 23 16 32 48 61 52 19 0 0 0 0 0 0 0 0 0 0 0 0 0 0 0 0 0 0 0 0 0 0
0 0 0 0 0 0 0 0 0 6 39 58 42 29 23 10 13 23 52 55 42 48 55 65 65 52 10 0 0 0 0 0 0 0 0 0 0 0 0 0 0 0 0 0 0 0 0 0 0
0 0 0 0 0 0 0 0 0 13 26 35 35 23 23 13 16 39 48 74 81 68 65 58 48 39 16 13 0 0 0 0 0 0 0 0 0 3 3 0 0 0 0 0 0 0 0 0 0
0 0 0 0 0 0 0 0 3 3 3 6 10 6 3 13 13 39 68 87 77 65 39 19 16 13 10 3 0 0 0 0 0 3 0 0 3 0 3 0 0 0 0 0 0 0 0 0 0
0 0 0 0 0 0 0 0 0 0 0 0 0 0 0 6 6 26 74 71 48 26 10 3 3 3 3 0 0 0 0 0 0 0 0 0 0 0 0 0 0 0 0 0 0 0 0 0 0
0 0 0 0 0 0 0 0 0 0 0 0 0 0 0 6 10 39 61 45 13 3 3 0 0 0 0 0 0 0 0 0 0 0 0 0 0 0 0 0 0 0 0 0 0 0 0 0 0
0 0 0 0 0 0 0 0 0 0 0 0 0 0 0 3 6 6 19 13 6 0 0 0 0 0 0 0 0 0 0 0 0 0 0 0 0 0 0 0 0 0 0 0 0 0 0 0 0
0 0 0 0 0 0 0 0 0 0 0 0 0 0 3 6 6 13 23 19 6 0 0 0 0 0 0 0 0 0 0 0 0 0 0 0 0 0 0 0 0 0 0 0 0 0 0 0 0
0 0 0 0 0 0 0 0 0 0 0 0 0 0 0 0 0 0 0 0 0 0 0 0 0 0 0 0 0 0 0 0 0 0 0 0 0 0 0 0 0 0 0 0 0 0 0 0 0
0 0 0 0 0 0 0 0 0 0 0 0 0 0 0 0 0 0 0 0 0 0 0 0 0 0 0 0 0 0 0 0 0 0 0 0 0 0 0 0 0 0 0 0 0 0 0 0 0
0 0 0 0 0 0 0 0 0 0 0 0 0 0 0 0 0 0 0 0 0 0 0 0 0 0 0 0 0 0 0 0 0 0 0 0 0 0 0 0 0 0 0 0 0 0 0 0 0
0 0 0 0 0 0 0 0 0 0 0 0 0 0 0 0 0 0 0 0 0 0 0 0 0 0 0 0 0 0 0 0 0 0 0 0 0 0 0 0 0 0 0 0 0 0 0 0 0
0 0 0 0 0 0 0 0 0 0 0 0 0 0 0 0 0 0 0 0 0 0 0 0 0 0 0 0 0 0 0 0 0 0 0 0 0 0 0 0 0 0 0 0 0 0 0 0 0

GEFSSGP_con_cape1000_018.txt.gz
Probability
0 0 0 0 0 0 0 0 0 0 0 0 0 0 0 0 0 0 0 0 0 0 48 87 100 100 100 100 100 100 100 97 94 100 100 100 100 100 100 100 100 100 100 100 100 100 100 100 100
0 0 0 0 0 0 0 0 0 0 0 0 0 0 0 29 3 0 0 0 0 0 58 81 100 100 100 100 100 100 100 100 100 100 100 100 100 100 97 97 97 100 97 100 100 100 100 100 100
0 0 0 0 0 0 0 0 0 0 0 0 0 0 3 55 0 0 0 0 0 0 52 100 100 100 100 100 100 100 100 100 100 100 100 100 100 100 100 100 97 97 97 97 97 100 100 100 100
0 0 0 0 0 0 0 0 0 0 0 0 0 0 0 0 0 0 0 0 0 0 42 100 100 100 100 100 100 100 100 100 100 100 100 100 100 100 100 100 100 94 97 94 97 100 97 100 100
0 0 0 0 0 0 0 0 0 0 0 0 0 0 0 3 0 0 0 0 0 0 23 100 100 100 100 100 100 100 100 100 100 100 100 100 100 100 97 90 94 97 87 87 84 94 94 100 100
0 0 0 0 0 0 0 0 3 0 3 0 0 0 16 39 3 0 0 0 0 0 16 100 100 100 100 100 100 100 100 100 100 100 100 100 97 97 90 71 58 45 45 68 61 58 81 97 100
0 0 0 0 0 0 0 0 3 10 13 6 0 0 55 61 10 0 0 0 0 0 6 100 100 100 100 100 100 100 100 100 97 97 97 97 100 100 100 87 58 42 32 39 45 35 45 74 97
0 0 0 0 0 0 0 3 6 13 26 10 0 0 0 77 19 0 0 0 0 0 6 61 61 90 97 100 100 100 100 97 97 97 97 94 71 55 55 71 61 19 10 16 32 42 52 87 94
0 0 0 0 0 0 0 3 45 48 74 29 6 3 3 87 13 0 0 0 3 6 16 10 16 61 65 48 74 81 87 77 81 81 48 42 3 0 10 0 3 0 0 0 3 23 61 97 100
0 0 0 0 0 0 0 3 45 61 74 65 65 87 94 97 58 16 3 6 10 13 23 35 6 23 13 0 29 29 19 23 10 10 6 13 0 0 0 0 0 0 0 3 29 42 65 45 58
0 0 0 0 0 0 0 3 32 55 68 55 84 100 97 90 71 23 3 6 10 19 29 32 19 32 0 3 0 0 0 6 0 6 6 3 0 0 0 0 6 58 26 35 48 65 23 39 52
0 0 0 0 0 0 0 6 35 48 61 45 97 100 94 90 58 13 19 6 10 23 42 45 71 97 52 10 0 0 0 0 0 6 6 3 10 10 6 32 26 39 68 48 26 58 10 16 19
0 0 0 0 0 0 0 6 42 55 58 77 97 100 97 90 77 55 32 42 32 65 77 90 100 100 100 100 61 0 0 0 0 0 3 3 6 42 16 65 94 68 42 52 84 52 48 48 32
0 0 0 0 0 0 3 13 35 71 84 90 100 100 100 90 84 71 74 90 84 87 94 100 100 100 100 100 100 77 10 32 0 0 0 16 39 71 65 81 87 81 81 81 90 52 68 39 16
0 0 0 0 0 0 0 0 26 68 87 100 100 100 100 100 97 97 94 100 97 97 94 100 100 100 100 100 100 97 48 13 6 6 19 58 81 94 97 87 81 81 81 94 100 68 65 35 10
0 0 0 0 0 0 0 0 0 45 74 90 97 100 100 100 100 100 100 100 100 94 97 100 90 100 100 100 100 90 45 16 29 32 58 81 97 100 100 94 90 94 94 94 94 61 52 32 23
0 0 0 0 0 0 0 0 0 10 19 68 87 97 100 100 100 100 100 100 100 100 97 100 97 100 100 100 100 100 94 81 71 71 81 94 94 94 100 100 94 100 100 87 84 19 55 45 55
0 0 0 0 0 0 0 0 0 0 6 16 74 97 100 100 100 100 100 100 100 100 97 100 100 100 100 100 100 100 97 97 94 94 100 100 100 100 100 100 97 90 97 100 81 84 100 97 94
0 0 0 0 0 0 0 0 0 0 0 16 55 87 97 100 100 100 100 100 100 100 97 100 100 100 100 100 100 100 97 90 97 97 97 97 97 100 100 97 100 100 97 100 65 84 61 94 84
0 0 0 0 0 0 0 0 0 0 3 16 58 81 94 100 100 100 100 100 100 100 100 100 100 100 100 97 90 84 77 74 68 74 77 77 81 97 87 100 97 100 100 100 100 100 87 74 48
0 0 0 0 0 0 0 0 0 3 19 42 48 74 84 84 97 100 100 100 100 100 100 100 100 100 100 97 90 84 74 65 45 52 52 42 39 61 87 90 97 100 97 97 100 97 84 74 87
0 0 0 0 0 0 0 0 0 0 10 16 32 52 74 84 94 97 100 100 100 100 100 100 100 100 100 97 94 94 74 48 35 26 35 29 26 23 32 58 77 94 94 100 87 23 61 97 87
0 0 0 0 0 0 0 0 0 0 3 10 16 23 42 61 84 94 97 97 100 100 100 100 100 100 100 100 100 94 74 52 35 26 16 16 6 13 6 39 71 87 100 100 94 94 97 100 100
0 0 0 0 0 0 0 0 0 0 0 0 6 26 26 35 58 81 90 94 94 94 97 97 97 97 97 97 87 87 77 55 39 16 16 6 13 16 10 16 45 74 90 97 100 100 97 100 94
0 0 0 0 0 0 0 0 0 0 0 6 10 13 13 23 26 42 58 77 87 94 94 94 94 90 84 84 81 84 68 48 32 19 6 13 13 19 19 19 32 61 84 97 97 100 100 94 97
0 0 0 0 0 0 0 0 0 0 0 0 0 6 6 3 6 10 13 32 52 48 65 84 81 68 65 58 61 55 39 52 35 16 19 23 29 29 13 16 29 42 52 52 71 81 77 77 77
0 0 0 0 0 0 0 0 0 0 0 0 0 0 0 0 0 3 3 10 13 19 29 39 48 52 29 26 35 32 19 16 19 13 26 19 16 0 3 3 6 16 23 32 32 39 42 45 42
0 0 0 0 0 0 0 0 0 0 0 0 0 0 0 0 0 0 0 3 6 6 16 26 32 26 23 10 0 0 3 0 0 0 0 0 0 0 3 3 3 3 3 3 3 3 0 10 39
0 0 0 0 0 0 0 0 0 0 6 0 0 0 0 0 0 0 0 0 0 0 0 3 3 0 3 0 0 0 0 0 0 0 0 0 0 0 0 0 0 0 0 0 0 0 0 0 6
0 0 0 0 0 0 0 0 0 0 3 0 0 0 0 0 0 0 0 0 0 0 0 0 0 0 0 0 0 0 0 0 0 0 0 0 0 0 0 0 0 0 0 0 0 0 0 0 0

GEFSSGP_con_cape1000_024.txt.gz
Probability
0 0 0 0 0 0 0 0 0 0 0 0 0 0 3 10 32 0 0 6 77 42 35 84 100 100 100 100 100 94 87 61 84 87 90 94 94 90 87 90 90 94 90 81 87 94 97 100 100
0 0 0 0 0 0 0 0 3 0 0 0 0 10 0 0 0 0 0 32 74 39 19 42 100 100 100 100 100 94 90 90 90 94 94 100 97 90 87 90 87 90 87 90 87 94 97 100 100
0 0 0 0 0 0 0 0 0 0 0 0 0 3 10 0 0 0 0 32 61 32 65 100 100 100 100 100 100 100 97 94 94 97 100 100 94 94 87 68 68 81 84 81 94 97 100 100 100
0 0 0 0 0 0 0 0 0 0 0 0 0 0 0 0 0 0 0 29 68 81 74 97 100 100 100 100 100 100 100 100 100 100 100 100 94 87 71 55 52 52 71 81 90 87 97 100 100
0 0 0 0 0 0 0 3 0 0 0 0 0 0 0 0 0 0 0 3 71 87 81 84 100 100 100 100 100 100 100 100 100 100 100 97 94 81 71 52 42 35 42 48 68 84 87 90 97
0 0 0 0 0 0 0 0 0 3 0 0 0 0 0 0 0 0 0 6 71 94 77 90 100 100 100 100 100 100 100 100 100 100 97 97 94 81 58 35 26 19 26 26 32 39 65 71 84
0 0 0 0 0 0 0 0 0 3 0 0 0 10 0 0 0 0 0 16 71 97 87 84 87 100 100 100 100 100 100 100 100 100 94 90 87 68 48 48 35 19 26 29 29 26 42 58 87
0 0 0 0 0 0 0 3 3 0 3 0 0 3 0 0 0 0 0 13 71 100 90 90 81 87 71 87 100 100 100 97 97 97 94 87 84 87 90 90 77 55 42 42 45 61 74 94 100
0 0 0 0 0 0 0 3 6 16 10 3 3 0 0 0 0 0 0 3 45 100 100 94 90 90 84 68 87 97 97 97 97 97 94 94 94 61 100 84 100 74 48 48 61 77 90 97 100
0 0 0 0 0 0 0 3 10 23 39 10 10 10 0 0 0 0 0 0 6 74 97 100 100 100 94 94 97 100 94 100 87 100 97 94 90 94 58 87 100 74 58 48 77 94 100 97 26
0 0 0 0 0 0 0 0 6 19 39 32 52 39 0 0 3 3 6 10 6 26 71 94 100 100 97 100 100 97 87 100 77 100 100 94 90 68 26 35 77 65 35 32 87 84 48 42 48
0 0 0 0 0 0 0 0 0 10 26 55 68 77 32 10 29 26 32 32 32 35 39 35 100 100 94 94 87 97 87 94 29 97 84 74 77 77 71 90 77 84 90 97 97 100 100 97 94
0 0 0 0 0 0 0 0 0 13 48 71 84 84 74 45 48 55 55 68 71 74 77 97 100 100 100 100 100 61 71 55 68 97 87 90 94 87 84 97 100 94 97 100 100 100 100 100 94
0 0 0 0 0 0 0 0 0 23 71 77 87 87 84 81 77 65 87 100 100 100 94 100 100 100 100 100 100 97 65 97 58 87 81 87 90 100 100 97 100 100 100 100 100 100 100 100 97
0 0 0 0 0 0 0 0 3 26 77 84 94 97 97 97 97 94 90 100 100 100 100 100 100 100 100 100 100 100 97 61 68 94 94 97 90 100 100 100 100 100 100 100 97 97 100 100 100
0 0 0 0 0 0 0 0 3 32 77 84 84 94 97 100 97 97 100 100 100 100 100 100 100 100 100 100 100 100 100 100 97 97 100 100 94 100 100 100 100 100 100 100 100 100 97 100 100
0 0 0 0 0 0 0 0 3 29 65 81 84 97 100 100 100 100 100 100 100 100 100 100 100 100 100 100 100 100 100 100 100 100 100 100 97 100 100 100 100 100 100 97 90 100 100 97 94
0 0 0 0 0 0 0 0 6 19 42 65 84 90 87 94 97 100 100 100 100 100 100 100 100 100 100 100 100 100 100 100 100 100 100 100 100 94 100 100 97 94 94 87 87 87 94 87 90
0 0 0 0 0 0 0 0 0 3 10 29 42 61 71 87 87 97 100 100 100 100 100 100 100 100 100 100 100 100 100 97 94 94 97 94 90 87 94 87 94 97 90 81 74 74 65 71 84
0 0 0 0 0 0 0 0 0 0 0 13 32 55 65 65 81 97 100 100 100 100 100 100 100 100 100 100 100 100 100 100 94 87 94 94 87 87 58 90 87 87 81 74 65 68 65 48 58
0 0 0 0 0 0 0 0 0 0 0 10 19 48 71 84 90 97 100 100 100 100 100 100 100 100 100 100 100 100 100 97 97 97 94 90 84 81 71 61 61 74 74 68 61 68 58 39 52
0 0 0 0 0 0 0 0 0 0 3 6 10 29 52 81 94 97 97 97 100 100 100 100 100 100 100 100 100 100 100 100 100 100 100 97 84 77 65 58 55 45 48 61 52 35 52 45 16
0 0 0 0 0 0 0 0 0 0 0 6 10 29 68 87 87 90 97 97 97 97 100 100 100 100 100 100 100 100 100 100 100 100 100 97 90 81 48 48 39 42 48 35 32 19 23 16 10
0 0 0 0 0 0 0 0 0 0 3 29 68 74 68 65 71 77 87 94 97 97 100 100 100 100 97 97 97 100 100 100 97 97 100 100 97 87 68 48 48 55 48 32 32 19 13 16 23
0 0 0 0 0 0 0 0 0 42 84 94 87 52 45 35 48 55 61 74 87 97 94 97 97 94 94 94 94 97 97 97 97 97 97 97 97 90 87 52 58 48 52 35 32 29 10 13 23
0 0 0 0 0 0 0 0 35 84 74 68 48 29 26 19 32 39 45 52 65 77 87 90 90 94 94 94 94 94 97 97 97 97 97 94 94 90 74 48 42 32 35 26 35 26 13 13 16
0 0 0 0 0 0 0 0 39 61 29 26 16 10 10 10 10 10 16 23 42 65 81 87 90 90 90 94 94 94 94 97 94 94 87 84 68 42 29 19 23 19 16 13 10 23 19 19 32
0 0 3 3 0 0 0 0 16 42 16 10 6 3 3 6 3 3 10 16 29 32 65 77 84 84 84 81 74 71 74 74 84 58 48 29 16 6 6 3 3 3 0 0 3 10 10 6 13
0 0 0 0 0 0 0 0 0 3 10 3 3 0 0 0 0 0 0 13 16 19 35 58 65 68 68 68 55 58 42 32 29 13 6 6 3 3 3 3 0 0 0 0 0 0 0 0 0
0 0 0 0 0 0 0 0 0 3 13 3 0 0 0 0 0 0 0 0 0 0 3 19 23 35 32 29 26 23 19 6 6 3 3 3 0 0 0 0 0 0 0 0 0 0 0 0 0